Content
SEND FEEDBACK

Daily
Averages
Monthly
Summary
United States of America

SYRACUSE, NEW YORK


Home > North America > United States > New York
Elevation: 421 feet     Latitude: 43 07N     Longitude: 076 07W

WEATHER
 
SELECT A DAY
Number of Records: 223,963;   Date Range: 1/1/95 - 8/30/14
 
SHARE

PRINT THIS DATA

[ ← Previous Day ]
WEATHER ALMANAC - DECEMBER 7, 2013
[ Next Day → ]
[ °C ]   °F
Weather ElementAverageHighLow
Temperature31.2 °F33.4 °F (2:54 pm)28.4 °F (9:54 pm)
Dewpoint20.2 °F27.7 °F (3:54 am) (7:00 pm)
Humidity67.5 %87 % (3:54 am)51 % (3:54 pm)
Barometer30.39 in30.54 in (11:54 pm)30.24 in (1:54 am)
Wind Speed13 mph19.6 mph (8:54 am)
Weather ElementAverage
Visibility8 mi
Wind DirectionW (274.8 °)

Weather ElementTotal
Precipitation---
Heating Degree Days34.1 (Base 65)
Averaged from 23 records on December 7, 2013
WEATHER CONDITIONS BREAKOUT
WIND DIRECTION BREAKOUT
WEATHER BY HOUR - DECEMBER 7, 2013
[ °C ]   °F
Local TimeTemperatureDewpointHumidityBarometerVisibilityWind DirectionWind SpeedGust SpeedPrecipitationEventsConditions
1:54 AM31.5 °F27.1 °F84 %30.24 in4.0 miWest (260°)5.8 mphSnowLight Snow
2:54 AM31.6 °F27.1 °F83 %30.25 in6.0 miWest (280°)12.7 mphSnowLight Snow
3:54 AM31.3 °F27.7 °F87 %30.25 in3.0 miWest (280°)10.4 mphSnowLight Snow
4:54 AM31.6 °F27.0 °F83 %30.25 in10.0 miWest (270°)5.8 mphSnowLight Snow
5:54 AM32.9 °F27.0 °F79 %30.29 in10.0 miWest (280°)11.5 mphSnowLight Snow
6:54 AM31.8 °F0.0 °F30.31 in10.0 miWSW (240°)5.8 mphSnowLight Snow
7:54 AM32.9 °F26.6 °F78 %30.32 in8.0 miWest (270°)15.0 mphSnowLight Snow
8:54 AM32.4 °F23.7 °F70 %30.34 in5.0 miWest (270°)19.6 mphSnowLight Snow
9:54 AM33.1 °F26.4 °F77 %30.38 in3.0 miWest (280°)12.7 mphSnowLight Snow
10:54 AM32.7 °F25.0 °F73 %30.40 in4.0 miWest (270°)16.1 mphSnowLight Snow
11:54 AM32.4 °F23.4 °F69 %30.39 in9.0 miWNW (290°)11.5 mphSnowLight Snow
12:54 PM31.1 °F22.3 °F70 %30.40 in4.0 miWNW (300°)13.8 mphSnowLight Snow
1:54 PM32.0 °F22.3 °F67 %30.40 in9.0 miWest (260°)15.0 mphSnowLight Snow
2:54 PM33.4 °F17.8 °F53 %30.41 in10.0 miWest (280°)16.1 mphSnowLight Snow
3:54 PM31.6 °F15.4 °F51 %30.42 in10.0 miWest (270°)13.8 mphMostly Cloudy
4:54 PM30.4 °F16.2 °F56 %30.43 in10.0 miWNW (300°)12.7 mphMostly Cloudy
5:54 PM29.7 °F14.7 °F54 %30.45 in10.0 miWest (280°)15.0 mphSnowLight Snow
6:54 PM29.5 °F16.3 °F58 %30.47 in10.0 miWest (280°)19.6 mphSnowLight Snow
7:54 PM28.9 °F14.4 °F55 %30.48 in10.0 miWest (270°)17.3 mphSnowLight Snow
8:54 PM28.9 °F14.7 °F55 %30.50 in10.0 miWest (260°)17.3 mphSnowLight Snow
9:54 PM28.4 °F14.0 °F55 %30.51 in10.0 miWest (270°)12.7 mphSnowLight Snow
10:54 PM29.1 °F16.3 °F59 %30.53 in10.0 miWest (280°)10.4 mphSnowLight Snow
11:54 PM29.3 °F20.3 °F69 %30.54 in9.0 miWest (280°)9.2 mphSnowLight Snow
Hourly data recorded from KSYR, located miles away from Syracuse, New York







STORIES FROM OUR PARTNERS